Time,TemperatureF,DewpointF,PressureIn,WindDirection,WindDirectionDegrees,WindSpeedMPH,WindSpeedGustMPH,Humidity,HourlyPrecipIn,Conditions,Clouds,dailyrainin,SolarRadiationWatts/m^2,SoftwareType,DateUTC
2013-02-17 00:01:00,30.4,8.4,30.06,SE,143,0.0,0.0,39,0.00,,,0.00,0,Wunderground v.1.15,2013-02-17 07:01:00,
2013-02-17 00:06:00,30.2,8.7,30.06,SE,143,0.0,0.0,40,0.00,,,0.00,0,Wunderground v.1.15,2013-02-17 07:06:00,
2013-02-17 00:11:00,30.7,8.6,30.05,SE,143,0.0,0.0,39,0.00,,,0.00,0,Wunderground v.1.15,2013-02-17 07:11:00,
2013-02-17 00:16:00,31.3,9.2,30.05,SE,143,0.0,0.0,39,0.00,,,0.00,0,Wunderground v.1.15,2013-02-17 07:16:00,
2013-02-17 00:21:00,31.7,9.0,30.05,SE,143,0.0,0.0,38,0.00,,,0.00,0,Wunderground v.1.15,2013-02-17 07:21:00,
2013-02-17 00:26:00,32.1,8.7,30.05,SE,143,0.0,0.0,37,0.00,,,0.00,0,Wunderground v.1.15,2013-02-17 07:26:00,
2013-02-17 00:31:00,31.8,8.4,30.05,SE,143,0.0,0.0,37,0.00,,,0.00,0,Wunderground v.1.15,2013-02-17 07:31:00,
2013-02-17 00:36:00,32.1,8.7,30.05,SE,143,0.0,0.0,37,0.00,,,0.00,0,Wunderground v.1.15,2013-02-17 07:36:00,
2013-02-17 00:41:00,32.5,8.5,30.04,SE,143,0.0,0.0,36,0.00,,,0.00,0,Wunderground v.1.15,2013-02-17 07:41:00,
2013-02-17 00:51:00,34.1,8.6,30.04,SE,143,0.0,0.0,34,0.00,,,0.00,0,Wunderground v.1.15,2013-02-17 07:51:00,
2013-02-17 01:01:00,34.0,8.5,30.02,SE,143,0.0,0.0,34,0.00,,,0.00,0,Wunderground v.1.15,2013-02-17 08:01:00,
2013-02-17 01:06:00,33.3,8.6,30.02,SE,143,0.0,0.0,35,0.00,,,0.00,0,Wunderground v.1.15,2013-02-17 08:06:00,
2013-02-17 01:16:00,32.7,8.6,30.02,SE,143,0.0,0.0,36,0.00,,,0.00,0,Wunderground v.1.15,2013-02-17 08:16:00,
2013-02-17 01:26:00,32.1,7.5,30.03,SE,143,0.0,0.0,35,0.00,,,0.00,0,Wunderground v.1.15,2013-02-17 08:26:00,
2013-02-17 01:36:00,31.8,7.8,30.02,SE,143,0.0,0.0,36,0.00,,,0.00,0,Wunderground v.1.15,2013-02-17 08:36:00,
2013-02-17 01:46:00,31.6,8.3,30.02,SE,143,0.0,0.0,37,0.00,,,0.00,0,Wunderground v.1.15,2013-02-17 08:46:00,
2013-02-17 01:51:00,31.4,7.5,30.02,SE,143,0.0,0.0,36,0.00,,,0.00,0,Wunderground v.1.15,2013-02-17 08:51:00,
2013-02-17 02:01:00,31.0,8.3,30.02,SE,143,0.0,0.0,38,0.00,,,0.00,0,Wunderground v.1.15,2013-02-17 09:01:00,
2013-02-17 02:06:00,30.9,8.2,30.02,SE,143,0.0,0.0,38,0.00,,,0.00,0,Wunderground v.1.15,2013-02-17 09:06:00,
2013-02-17 02:16:00,30.3,7.7,30.01,SE,143,0.0,0.0,38,0.00,,,0.00,0,Wunderground v.1.15,2013-02-17 09:16:00,
2013-02-17 02:21:00,30.1,7.5,30.01,SE,143,0.0,0.0,38,0.00,,,0.00,0,Wunderground v.1.15,2013-02-17 09:21:00,
2013-02-17 02:26:00,29.7,7.7,30.01,SE,143,0.0,0.0,39,0.00,,,0.00,0,Wunderground v.1.15,2013-02-17 09:26:00,
2013-02-17 02:31:00,29.2,7.8,30.01,SE,143,0.0,0.0,40,0.00,,,0.00,0,Wunderground v.1.15,2013-02-17 09:31:00,
2013-02-17 02:36:00,28.9,7.6,30.01,SE,143,0.0,0.0,40,0.00,,,0.00,0,Wunderground v.1.15,2013-02-17 09:36:00,
2013-02-17 02:41:00,28.7,7.9,30.01,SE,143,0.0,0.0,41,0.00,,,0.00,0,Wunderground v.1.15,2013-02-17 09:41:00,
2013-02-17 02:51:00,29.0,9.3,30.00,SE,143,0.0,0.0,43,0.00,,,0.00,0,Wunderground v.1.15,2013-02-17 09:51:00,
2013-02-17 02:56:00,29.2,9.4,30.00,SE,143,0.0,0.0,43,0.00,,,0.00,0,Wunderground v.1.15,2013-02-17 09:56:00,
2013-02-17 03:01:00,29.2,8.9,30.00,SE,143,0.0,0.0,42,0.00,,,0.00,0,Wunderground v.1.15,2013-02-17 10:01:00,
2013-02-17 03:11:00,28.8,9.1,29.99,SE,143,0.0,0.0,43,0.00,,,0.00,0,Wunderground v.1.15,2013-02-17 10:11:00,
2013-02-17 03:16:00,28.4,9.2,29.99,SE,143,0.0,0.0,44,0.00,,,0.00,0,Wunderground v.1.15,2013-02-17 10:16:00,
2013-02-17 03:26:00,27.8,8.2,29.99,SE,143,0.0,0.0,43,0.00,,,0.00,0,Wunderground v.1.15,2013-02-17 10:26:00,
2013-02-17 03:36:00,27.2,8.1,30.00,SE,143,0.0,0.0,44,0.00,,,0.00,0,Wunderground v.1.15,2013-02-17 10:36:00,
2013-02-17 03:41:00,26.9,8.4,30.00,SE,143,0.0,0.0,45,0.00,,,0.00,0,Wunderground v.1.15,2013-02-17 10:41:00,
2013-02-17 03:46:00,26.9,9.3,29.99,SE,143,0.0,0.0,47,0.00,,,0.00,0,Wunderground v.1.15,2013-02-17 10:46:00,
2013-02-17 03:56:00,26.7,9.6,29.99,SE,143,0.0,0.0,48,0.00,,,0.00,0,Wunderground v.1.15,2013-02-17 10:56:00,
2013-02-17 04:01:00,26.5,9.0,30.00,SE,143,0.0,0.0,47,0.00,,,0.00,0,Wunderground v.1.15,2013-02-17 11:01:00,
2013-02-17 04:06:00,26.4,8.4,30.00,SE,143,0.0,0.0,46,0.00,,,0.00,0,Wunderground v.1.15,2013-02-17 11:06:00,
2013-02-17 04:16:00,26.0,9.9,30.00,SE,143,0.0,0.0,50,0.00,,,0.00,0,Wunderground v.1.15,2013-02-17 11:16:00,
2013-02-17 04:21:00,25.8,10.1,30.00,SE,143,0.0,0.0,51,0.00,,,0.00,0,Wunderground v.1.15,2013-02-17 11:21:00,
2013-02-17 04:26:00,25.7,9.6,30.00,SE,143,0.0,0.0,50,0.00,,,0.00,0,Wunderground v.1.15,2013-02-17 11:26:00,
2013-02-17 04:31:00,25.6,10.4,30.00,SE,143,0.0,0.0,52,0.00,,,0.00,0,Wunderground v.1.15,2013-02-17 11:31:00,
2013-02-17 04:41:00,25.3,9.7,30.00,SE,143,0.0,0.0,51,0.00,,,0.00,0,Wunderground v.1.15,2013-02-17 11:41:00,
2013-02-17 04:46:00,25.2,10.0,30.01,SE,143,0.0,0.0,52,0.00,,,0.00,0,Wunderground v.1.15,2013-02-17 11:46:00,
2013-02-17 04:51:00,25.0,9.8,30.01,SE,143,0.0,0.0,52,0.00,,,0.00,0,Wunderground v.1.15,2013-02-17 11:51:00,
2013-02-17 04:56:00,24.9,9.7,30.00,SE,143,0.0,0.0,52,0.00,,,0.00,0,Wunderground v.1.15,2013-02-17 11:56:00,
2013-02-17 05:06:00,24.8,10.5,30.03,SE,143,0.0,0.0,54,0.00,,,0.00,0,Wunderground v.1.15,2013-02-17 12:06:00,
2013-02-17 05:16:00,24.7,10.8,30.03,SE,143,0.0,0.0,55,0.00,,,0.00,0,Wunderground v.1.15,2013-02-17 12:16:00,
2013-02-17 05:21:00,24.8,10.9,30.03,SE,143,0.0,0.0,55,0.00,,,0.00,0,Wunderground v.1.15,2013-02-17 12:21:00,
2013-02-17 05:26:00,24.8,10.9,30.03,SE,143,0.0,0.0,55,0.00,,,0.00,0,Wunderground v.1.15,2013-02-17 12:26:00,
2013-02-17 05:31:00,24.9,11.0,30.03,SE,143,0.0,0.0,55,0.00,,,0.00,0,Wunderground v.1.15,2013-02-17 12:31:00,
2013-02-17 05:36:00,25.0,11.5,30.03,SE,143,0.0,0.0,56,0.00,,,0.00,0,Wunderground v.1.15,2013-02-17 12:36:00,
2013-02-17 05:46:00,25.4,11.5,30.03,SE,143,0.0,0.0,55,0.00,,,0.00,0,Wunderground v.1.15,2013-02-17 12:46:00,
2013-02-17 05:51:00,25.4,11.5,30.03,SE,143,0.0,0.0,55,0.00,,,0.00,0,Wunderground v.1.15,2013-02-17 12:51:00,
2013-02-17 05:56:00,25.5,11.6,30.02,SE,143,0.0,0.0,55,0.00,,,0.00,0,Wunderground v.1.15,2013-02-17 12:56:00,
2013-02-17 06:01:00,25.6,11.7,30.07,SE,143,0.0,0.0,55,0.00,,,0.00,0,Wunderground v.1.15,2013-02-17 13:01:00,
2013-02-17 06:11:00,25.6,11.7,30.07,SE,143,0.0,0.0,55,0.00,,,0.00,0,Wunderground v.1.15,2013-02-17 13:11:00,
2013-02-17 06:21:00,25.5,12.0,30.06,SE,143,0.0,0.0,56,0.00,,,0.00,0,Wunderground v.1.15,2013-02-17 13:21:00,
2013-02-17 06:26:00,25.5,12.0,30.06,SE,143,1.0,3.0,56,0.00,,,0.00,0,Wunderground v.1.15,2013-02-17 13:26:00,
2013-02-17 06:36:00,25.7,12.2,30.07,SE,143,1.0,2.0,56,0.00,,,0.00,0,Wunderground v.1.15,2013-02-17 13:36:00,
2013-02-17 06:46:00,25.6,12.1,30.07,SE,143,0.0,0.0,56,0.00,,,0.00,0,Wunderground v.1.15,2013-02-17 13:46:00,
2013-02-17 06:51:00,25.6,12.1,30.07,SE,143,0.0,0.0,56,0.00,,,0.00,0,Wunderground v.1.15,2013-02-17 13:51:00,
2013-02-17 07:01:00,25.6,12.1,30.10,SE,143,0.0,0.0,56,0.00,,,0.00,7,Wunderground v.1.15,2013-02-17 14:01:00,
2013-02-17 07:11:00,25.5,12.4,30.09,SE,143,0.0,0.0,57,0.00,,,0.00,14,Wunderground v.1.15,2013-02-17 14:11:00,
2013-02-17 07:16:00,25.6,12.5,30.09,SE,143,0.0,0.0,57,0.00,,,0.00,23,Wunderground v.1.15,2013-02-17 14:16:00,
2013-02-17 07:26:00,26.1,13.3,30.09,SE,143,0.0,0.0,58,0.00,,,0.00,42,Wunderground v.1.15,2013-02-17 14:26:00,
2013-02-17 07:36:00,28.0,14.3,30.08,SE,143,0.0,0.0,56,0.00,,,0.00,77,Wunderground v.1.15,2013-02-17 14:36:00,
2013-02-17 07:41:00,29.4,14.4,30.08,SE,143,0.0,0.0,53,0.00,,,0.00,93,Wunderground v.1.15,2013-02-17 14:41:00,
2013-02-17 07:51:00,31.0,14.0,30.07,SE,143,0.0,0.0,49,0.00,,,0.00,62,Wunderground v.1.15,2013-02-17 14:51:00,
2013-02-17 07:56:00,31.5,14.0,30.06,SE,143,0.0,0.0,48,0.00,,,0.00,95,Wunderground v.1.15,2013-02-17 14:56:00,
2013-02-17 08:06:00,33.0,14.4,30.08,SE,143,0.0,5.0,46,0.00,,,0.00,183,Wunderground v.1.15,2013-02-17 15:06:00,
2013-02-17 08:11:00,34.4,14.7,30.07,SE,143,1.0,1.0,44,0.00,,,0.00,137,Wunderground v.1.15,2013-02-17 15:11:00,
2013-02-17 08:21:00,35.5,15.2,30.07,SE,144,1.0,1.0,43,0.00,,,0.00,227,Wunderground v.1.15,2013-02-17 15:21:00,
2013-02-17 08:31:00,38.3,15.5,30.06,SE,144,0.0,0.0,39,0.00,,,0.00,285,Wunderground v.1.15,2013-02-17 15:31:00,
2013-02-17 08:36:00,39.4,15.3,30.06,SE,143,0.0,0.0,37,0.00,,,0.00,308,Wunderground v.1.15,2013-02-17 15:36:00,
2013-02-17 08:41:00,40.7,15.1,30.05,SE,143,0.0,0.0,35,0.00,,,0.00,308,Wunderground v.1.15,2013-02-17 15:41:00,
2013-02-17 08:46:00,42.3,15.9,30.03,SE,143,0.0,0.0,34,0.00,,,0.00,339,Wunderground v.1.15,2013-02-17 15:46:00,
2013-02-17 08:51:00,44.6,15.8,30.03,SE,143,0.0,0.0,31,0.00,,,0.00,366,Wunderground v.1.15,2013-02-17 15:51:00,
2013-02-17 09:01:00,48.0,13.8,30.01,SE,144,1.0,1.0,25,0.00,,,0.00,380,Wunderground v.1.15,2013-02-17 16:01:00,
2013-02-17 09:06:00,49.6,13.3,30.00,SSE,165,2.0,7.0,23,0.00,,,0.00,415,Wunderground v.1.15,2013-02-17 16:06:00,
2013-02-17 09:11:00,51.3,12.6,30.00,South,170,4.0,4.0,21,0.00,,,0.00,432,Wunderground v.1.15,2013-02-17 16:11:00,
2013-02-17 09:21:00,53.3,10.8,30.00,South,178,5.0,7.0,18,0.00,,,0.00,478,Wunderground v.1.15,2013-02-17 16:21:00,
2013-02-17 09:31:00,54.2,10.3,29.98,South,177,6.0,6.0,17,0.00,,,0.00,512,Wunderground v.1.15,2013-02-17 16:31:00,
2013-02-17 09:36:00,55.0,10.9,29.98,South,176,6.0,10.0,17,0.00,,,0.00,506,Wunderground v.1.15,2013-02-17 16:36:00,
2013-02-17 09:41:00,56.0,10.4,29.97,South,183,6.0,10.0,16,0.00,,,0.00,517,Wunderground v.1.15,2013-02-17 16:41:00,
2013-02-17 09:46:00,56.4,10.7,29.97,South,176,6.0,10.0,16,0.00,,,0.00,497,Wunderground v.1.15,2013-02-17 16:46:00,
2013-02-17 09:56:00,60.4,7.5,29.95,South,188,9.0,10.0,12,0.00,,,0.00,596,Wunderground v.1.15,2013-02-17 16:56:00,
2013-02-17 10:06:00,59.0,8.1,29.96,South,169,8.0,9.0,13,0.00,,,0.00,617,Wunderground v.1.15,2013-02-17 17:06:00,
2013-02-17 10:16:00,60.4,9.2,29.95,SSE,160,6.0,7.0,13,0.00,,,0.00,640,Wunderground v.1.15,2013-02-17 17:16:00,
2013-02-17 10:21:00,60.4,7.5,29.95,South,176,7.0,13.0,12,0.00,,,0.00,650,Wunderground v.1.15,2013-02-17 17:21:00,
2013-02-17 10:31:00,62.4,9.0,29.94,South,185,9.0,9.0,12,0.00,,,0.00,671,Wunderground v.1.15,2013-02-17 17:31:00,
2013-02-17 10:36:00,62.3,9.0,29.94,South,173,10.0,10.0,12,0.00,,,0.00,682,Wunderground v.1.15,2013-02-17 17:36:00,
2013-02-17 10:46:00,63.3,9.7,29.94,SSE,162,6.0,10.0,12,0.00,,,0.00,705,Wunderground v.1.15,2013-02-17 17:46:00,
2013-02-17 10:51:00,63.6,10.0,29.93,SSE,154,6.0,6.0,12,0.00,,,0.00,717,Wunderground v.1.15,2013-02-17 17:51:00,
2013-02-17 10:56:00,63.9,8.3,29.92,SE,143,7.0,7.0,11,0.00,,,0.00,715,Wunderground v.1.15,2013-02-17 17:56:00,
2013-02-17 11:01:00,64.3,10.5,29.95,South,169,7.0,9.0,12,0.00,,,0.00,705,Wunderground v.1.15,2013-02-17 18:01:00,
2013-02-17 11:11:00,65.1,11.2,29.93,SSE,147,8.0,9.0,12,0.00,,,0.00,687,Wunderground v.1.15,2013-02-17 18:11:00,
2013-02-17 11:21:00,67.0,10.7,29.92,SSW,195,10.0,10.0,11,0.00,,,0.00,770,Wunderground v.1.15,2013-02-17 18:21:00,
2013-02-17 11:31:00,66.9,10.6,29.92,South,188,10.0,10.0,11,0.00,,,0.00,782,Wunderground v.1.15,2013-02-17 18:31:00,
2013-02-17 11:36:00,67.8,11.3,29.91,SSW,212,10.0,10.0,11,0.00,,,0.00,788,Wunderground v.1.15,2013-02-17 18:36:00,
2013-02-17 11:41:00,68.3,9.5,29.91,SSW,210,10.0,10.0,10,0.00,,,0.00,793,Wunderground v.1.15,2013-02-17 18:41:00,
2013-02-17 11:46:00,68.2,9.5,29.91,SW,223,9.0,10.0,10,0.00,,,0.00,800,Wunderground v.1.15,2013-02-17 18:46:00,
2013-02-17 11:56:00,68.8,9.9,29.89,SW,217,9.0,9.0,10,0.00,,,0.00,809,Wunderground v.1.15,2013-02-17 18:56:00,
2013-02-17 12:01:00,69.3,12.5,29.88,WSW,240,7.0,7.0,11,0.00,,,0.00,812,Wunderground v.1.15,2013-02-17 19:01:00,
2013-02-17 12:11:00,70.0,10.9,29.87,SW,228,6.0,6.0,10,0.00,,,0.00,819,Wunderground v.1.15,2013-02-17 19:11:00,
2013-02-17 12:16:00,70.0,10.9,29.87,WSW,253,9.0,11.0,10,0.00,,,0.00,823,Wunderground v.1.15,2013-02-17 19:16:00,
2013-02-17 12:21:00,69.2,12.4,29.87,SW,225,10.0,13.0,11,0.00,,,0.00,823,Wunderground v.1.15,2013-02-17 19:21:00,
2013-02-17 12:26:00,69.2,10.2,29.86,SSW,199,12.0,13.0,10,0.00,,,0.00,824,Wunderground v.1.15,2013-02-17 19:26:00,
2013-02-17 12:31:00,69.2,10.2,29.86,SSW,209,13.0,13.0,10,0.00,,,0.00,826,Wunderground v.1.15,2013-02-17 19:31:00,
2013-02-17 12:36:00,69.4,10.4,29.85,SW,218,12.0,14.0,10,0.00,,,0.00,826,Wunderground v.1.15,2013-02-17 19:36:00,
2013-02-17 12:46:00,69.7,10.6,29.84,SSW,199,13.0,17.0,10,0.00,,,0.00,826,Wunderground v.1.15,2013-02-17 19:46:00,
2013-02-17 12:51:00,69.5,10.5,29.84,South,178,14.0,14.0,10,0.00,,,0.00,830,Wunderground v.1.15,2013-02-17 19:51:00,
2013-02-17 12:56:00,70.1,8.6,29.84,SSW,192,13.0,19.0,9,0.00,,,0.00,830,Wunderground v.1.15,2013-02-17 19:56:00,
2013-02-17 13:06:00,70.8,6.5,29.85,SW,236,11.0,12.0,8,0.00,,,0.00,835,Wunderground v.1.15,2013-02-17 20:06:00,
2013-02-17 13:16:00,70.9,9.2,29.84,SSW,210,9.0,10.0,9,0.00,,,0.00,838,Wunderground v.1.15,2013-02-17 20:16:00,
2013-02-17 13:21:00,70.5,8.9,29.84,SSW,210,10.0,15.0,9,0.00,,,0.00,740,Wunderground v.1.15,2013-02-17 20:21:00,
2013-02-17 13:26:00,70.1,8.6,29.84,SW,235,11.0,15.0,9,0.00,,,0.00,816,Wunderground v.1.15,2013-02-17 20:26:00,
2013-02-17 13:31:00,70.2,8.6,29.84,South,190,10.0,10.0,9,0.00,,,0.00,803,Wunderground v.1.15,2013-02-17 20:31:00,
2013-02-17 13:36:00,70.7,9.0,29.83,South,174,9.0,10.0,9,0.00,,,0.00,796,Wunderground v.1.15,2013-02-17 20:36:00,
2013-02-17 13:46:00,71.3,6.9,29.83,SSW,204,9.0,11.0,8,0.00,,,0.00,782,Wunderground v.1.15,2013-02-17 20:46:00,
2013-02-17 13:56:00,71.8,7.2,29.83,South,185,8.0,14.0,8,0.00,,,0.00,775,Wunderground v.1.15,2013-02-17 20:56:00,
2013-02-17 14:01:00,71.5,7.0,29.83,WSW,257,7.0,9.0,8,0.00,,,0.00,777,Wunderground v.1.15,2013-02-17 21:01:00,
2013-02-17 14:06:00,71.7,4.2,29.83,WSW,257,7.0,11.0,7,0.00,,,0.00,780,Wunderground v.1.15,2013-02-17 21:06:00,
2013-02-17 14:16:00,72.0,7.4,29.83,SW,235,9.0,12.0,8,0.00,,,0.00,766,Wunderground v.1.15,2013-02-17 21:16:00,
2013-02-17 14:21:00,72.0,7.4,29.83,West,259,8.0,8.0,8,0.00,,,0.00,737,Wunderground v.1.15,2013-02-17 21:21:00,
2013-02-17 14:31:00,71.3,6.9,29.83,SW,229,7.0,12.0,8,0.00,,,0.00,680,Wunderground v.1.15,2013-02-17 21:31:00,
2013-02-17 14:36:00,71.2,9.4,29.82,WSW,257,9.0,12.0,9,0.00,,,0.00,728,Wunderground v.1.15,2013-02-17 21:36:00,
2013-02-17 14:41:00,70.7,9.0,29.82,SW,225,10.0,11.0,9,0.00,,,0.00,714,Wunderground v.1.15,2013-02-17 21:41:00,
2013-02-17 14:51:00,69.9,8.4,29.83,West,259,11.0,11.0,9,0.00,,,0.00,506,Wunderground v.1.15,2013-02-17 21:51:00,
2013-02-17 15:01:00,69.9,10.8,29.84,SW,216,10.0,10.0,10,0.00,,,0.00,675,Wunderground v.1.15,2013-02-17 22:01:00,
2013-02-17 15:11:00,69.9,10.8,29.84,WSW,242,10.0,11.0,10,0.00,,,0.00,643,Wunderground v.1.15,2013-02-17 22:11:00,
2013-02-17 15:16:00,69.7,10.6,29.84,WSW,243,11.0,11.0,10,0.00,,,0.00,619,Wunderground v.1.15,2013-02-17 22:16:00,
2013-02-17 15:26:00,69.7,8.3,29.85,WSW,241,11.0,12.0,9,0.00,,,0.00,585,Wunderground v.1.15,2013-02-17 22:26:00,
2013-02-17 15:36:00,69.7,8.3,29.84,West,266,10.0,11.0,9,0.00,,,0.00,527,Wunderground v.1.15,2013-02-17 22:36:00,
2013-02-17 15:41:00,69.6,8.2,29.84,West,262,9.0,14.0,9,0.00,,,0.00,489,Wunderground v.1.15,2013-02-17 22:41:00,
2013-02-17 15:46:00,68.9,7.7,29.84,WSW,249,9.0,14.0,9,0.00,,,0.00,459,Wunderground v.1.15,2013-02-17 22:46:00,
2013-02-17 15:51:00,68.5,7.4,29.84,WSW,251,10.0,10.0,9,0.00,,,0.00,480,Wunderground v.1.15,2013-02-17 22:51:00,
2013-02-17 15:56:00,68.5,7.4,29.84,WSW,240,10.0,10.0,9,0.00,,,0.00,487,Wunderground v.1.15,2013-02-17 22:56:00,
2013-02-17 16:01:00,68.3,7.2,29.86,WSW,255,10.0,10.0,9,0.00,,,0.00,471,Wunderground v.1.15,2013-02-17 23:01:00,
2013-02-17 16:06:00,68.0,7.0,29.86,West,260,11.0,13.0,9,0.00,,,0.00,452,Wunderground v.1.15,2013-02-17 23:06:00,
2013-02-17 16:11:00,67.8,6.8,29.86,SW,214,11.0,12.0,9,0.00,,,0.00,420,Wunderground v.1.15,2013-02-17 23:11:00,
2013-02-17 16:21:00,66.9,6.1,29.87,WSW,240,10.0,10.0,9,0.00,,,0.00,413,Wunderground v.1.15,2013-02-17 23:21:00,
2013-02-17 16:31:00,67.0,8.5,29.87,SSW,207,7.0,8.0,10,0.00,,,0.00,355,Wunderground v.1.15,2013-02-17 23:31:00,
2013-02-17 16:41:00,66.5,8.2,29.87,WSW,246,8.0,8.0,10,0.00,,,0.00,299,Wunderground v.1.15,2013-02-17 23:41:00,
2013-02-17 16:46:00,66.3,8.0,29.88,SW,216,7.0,10.0,10,0.00,,,0.00,292,Wunderground v.1.15,2013-02-17 23:46:00,
2013-02-17 16:51:00,66.0,7.8,29.88,South,189,7.0,7.0,10,0.00,,,0.00,294,Wunderground v.1.15,2013-02-17 23:51:00,
2013-02-17 17:01:00,65.4,7.3,29.88,SW,218,7.0,7.0,10,0.00,,,0.00,176,Wunderground v.1.15,2013-02-18 00:01:00,
2013-02-17 17:06:00,64.7,6.8,29.88,SW,220,4.0,7.0,10,0.00,,,0.00,97,Wunderground v.1.15,2013-02-18 00:06:00,
2013-02-17 17:11:00,63.8,6.1,29.88,SW,219,4.0,5.0,10,0.00,,,0.00,93,Wunderground v.1.15,2013-02-18 00:11:00,
2013-02-17 17:21:00,63.1,5.6,29.89,SSW,206,6.0,6.0,10,0.00,,,0.00,97,Wunderground v.1.15,2013-02-18 00:21:00,
2013-02-17 17:26:00,63.0,5.5,29.89,SSW,197,6.0,11.0,10,0.00,,,0.00,79,Wunderground v.1.15,2013-02-18 00:26:00,
2013-02-17 17:36:00,62.5,5.1,29.90,SSW,193,8.0,15.0,10,0.00,,,0.00,51,Wunderground v.1.15,2013-02-18 00:36:00,
2013-02-17 17:41:00,62.2,4.9,29.89,SSW,197,8.0,8.0,10,0.00,,,0.00,42,Wunderground v.1.15,2013-02-18 00:41:00,
2013-02-17 17:51:00,61.6,4.4,29.89,South,188,7.0,7.0,10,0.00,,,0.00,28,Wunderground v.1.15,2013-02-18 00:51:00,
2013-02-17 17:56:00,61.2,4.1,29.91,South,185,7.0,10.0,10,0.00,,,0.00,19,Wunderground v.1.15,2013-02-18 00:56:00,
2013-02-17 18:01:00,61.0,3.9,29.90,SSW,212,8.0,10.0,10,0.00,,,0.00,11,Wunderground v.1.15,2013-02-18 01:01:00,
2013-02-17 18:11:00,60.8,1.5,29.90,SSW,204,9.0,9.0,9,0.00,,,0.00,0,Wunderground v.1.15,2013-02-18 01:11:00,
2013-02-17 18:21:00,60.5,1.3,29.91,SW,227,8.0,8.0,9,0.00,,,0.00,0,Wunderground v.1.15,2013-02-18 01:21:00,
2013-02-17 18:31:00,59.4,0.4,29.92,SW,225,1.0,1.0,9,0.00,,,0.00,0,Wunderground v.1.15,2013-02-18 01:31:00,
2013-02-17 18:36:00,59.0,2.4,29.92,SW,228,1.0,1.0,10,0.00,,,0.00,0,Wunderground v.1.15,2013-02-18 01:36:00,
2013-02-17 18:41:00,59.0,2.4,29.93,SW,233,4.0,4.0,10,0.00,,,0.00,0,Wunderground v.1.15,2013-02-18 01:41:00,
2013-02-17 18:46:00,59.0,0.1,29.93,SW,233,3.0,4.0,9,0.00,,,0.00,0,Wunderground v.1.15,2013-02-18 01:46:00,
2013-02-17 18:56:00,58.4,1.9,29.94,SW,234,1.0,1.0,10,0.00,,,0.00,0,Wunderground v.1.15,2013-02-18 01:56:00,
2013-02-17 19:06:00,58.0,1.6,29.91,WSW,238,1.0,1.0,10,0.00,,,0.00,0,Wunderground v.1.15,2013-02-18 02:06:00,
2013-02-17 19:16:00,57.9,1.5,29.92,WSW,238,0.0,0.0,10,0.00,,,0.00,0,Wunderground v.1.15,2013-02-18 02:16:00,
2013-02-17 19:21:00,57.7,1.4,29.91,WSW,237,0.0,0.0,10,0.00,,,0.00,0,Wunderground v.1.15,2013-02-18 02:21:00,
2013-02-17 19:26:00,57.0,0.8,29.92,WSW,237,0.0,0.0,10,0.00,,,0.00,0,Wunderground v.1.15,2013-02-18 02:26:00,
2013-02-17 19:31:00,56.4,0.4,29.92,WSW,237,0.0,0.0,10,0.00,,,0.00,0,Wunderground v.1.15,2013-02-18 02:31:00,
2013-02-17 19:36:00,55.9,-2.2,29.92,WSW,237,0.0,0.0,9,0.00,,,0.00,0,Wunderground v.1.15,2013-02-18 02:36:00,
2013-02-17 19:41:00,56.3,-1.9,29.92,WSW,237,0.0,0.0,9,0.00,,,0.00,0,Wunderground v.1.15,2013-02-18 02:41:00,
2013-02-17 19:51:00,54.7,1.1,29.93,WSW,237,0.0,0.0,11,0.00,,,0.00,0,Wunderground v.1.15,2013-02-18 02:51:00,
2013-02-17 20:01:00,53.8,2.3,29.86,WSW,238,0.0,6.0,12,0.00,,,0.00,0,Wunderground v.1.15,2013-02-18 03:01:00,
2013-02-17 20:06:00,53.1,1.7,29.87,WSW,240,1.0,6.0,12,0.00,,,0.00,0,Wunderground v.1.15,2013-02-18 03:06:00,
2013-02-17 20:11:00,51.2,1.9,29.88,WSW,240,0.0,0.0,13,0.00,,,0.00,0,Wunderground v.1.15,2013-02-18 03:11:00,
2013-02-17 20:16:00,50.2,2.7,29.88,WSW,240,0.0,0.0,14,0.00,,,0.00,0,Wunderground v.1.15,2013-02-18 03:16:00,
2013-02-17 20:26:00,47.8,3.7,29.89,WSW,240,0.0,0.0,16,0.00,,,0.00,0,Wunderground v.1.15,2013-02-18 03:26:00,
2013-02-17 20:31:00,50.4,2.9,29.89,WSW,238,0.0,0.0,14,0.00,,,0.00,0,Wunderground v.1.15,2013-02-18 03:31:00,
2013-02-17 20:41:00,53.7,3.9,29.87,SW,235,1.0,1.0,13,0.00,,,0.00,0,Wunderground v.1.15,2013-02-18 03:41:00,
2013-02-17 20:51:00,52.3,2.8,29.89,SW,236,0.0,0.0,13,0.00,,,0.00,0,Wunderground v.1.15,2013-02-18 03:51:00,
2013-02-17 20:56:00,52.4,2.9,29.88,SW,234,0.0,0.0,13,0.00,,,0.00,0,Wunderground v.1.15,2013-02-18 03:56:00,
2013-02-17 21:06:00,53.6,3.8,29.84,SW,233,0.0,1.0,13,0.00,,,0.00,0,Wunderground v.1.15,2013-02-18 04:06:00,
2013-02-17 21:11:00,52.1,4.3,29.85,SW,233,0.0,0.0,14,0.00,,,0.00,0,Wunderground v.1.15,2013-02-18 04:11:00,
2013-02-17 21:21:00,49.3,3.5,29.86,SW,232,0.0,0.0,15,0.00,,,0.00,0,Wunderground v.1.15,2013-02-18 04:21:00,
2013-02-17 21:26:00,49.2,4.8,29.86,SW,232,0.0,0.0,16,0.00,,,0.00,0,Wunderground v.1.15,2013-02-18 04:26:00,
2013-02-17 21:36:00,49.2,3.4,29.86,SW,232,2.0,7.0,15,0.00,,,0.00,0,Wunderground v.1.15,2013-02-18 04:36:00,
2013-02-17 21:46:00,47.2,3.2,29.87,SW,233,0.0,0.0,16,0.00,,,0.00,0,Wunderground v.1.15,2013-02-18 04:46:00,
2013-02-17 21:51:00,44.7,2.5,29.89,SW,233,0.0,0.0,17,0.00,,,0.00,0,Wunderground v.1.15,2013-02-18 04:51:00,
2013-02-17 21:56:00,44.3,3.4,29.90,SW,232,0.0,0.0,18,0.00,,,0.00,0,Wunderground v.1.15,2013-02-18 04:56:00,
2013-02-17 22:01:00,44.7,3.7,29.90,SW,232,0.0,0.0,18,0.00,,,0.00,0,Wunderground v.1.15,2013-02-18 05:01:00,
2013-02-17 22:06:00,44.3,2.1,29.87,SW,233,0.0,0.0,17,0.00,,,0.00,0,Wunderground v.1.15,2013-02-18 05:06:00,
2013-02-17 22:11:00,44.5,3.5,29.88,SW,233,0.0,0.0,18,0.00,,,0.00,0,Wunderground v.1.15,2013-02-18 05:11:00,
2013-02-17 22:21:00,45.0,4.0,29.88,SW,232,0.0,0.0,18,0.00,,,0.00,0,Wunderground v.1.15,2013-02-18 05:21:00,
2013-02-17 22:31:00,44.8,5.0,29.88,SW,233,0.0,1.0,19,0.00,,,0.00,0,Wunderground v.1.15,2013-02-18 05:31:00,
2013-02-17 22:36:00,45.6,5.6,29.87,SW,233,0.0,1.0,19,0.00,,,0.00,0,Wunderground v.1.15,2013-02-18 05:36:00,
2013-02-17 22:41:00,45.7,5.7,29.88,SW,233,0.0,0.0,19,0.00,,,0.00,0,Wunderground v.1.15,2013-02-18 05:41:00,
2013-02-17 22:46:00,45.5,5.6,29.88,SW,233,0.0,0.0,19,0.00,,,0.00,0,Wunderground v.1.15,2013-02-18 05:46:00,
2013-02-17 22:51:00,46.4,8.5,29.88,SW,231,1.0,1.0,21,0.00,,,0.00,0,Wunderground v.1.15,2013-02-18 05:51:00,
2013-02-17 23:01:00,48.8,7.1,29.84,SW,231,1.0,1.0,18,0.00,,,0.00,0,Wunderground v.1.15,2013-02-18 06:01:00,
2013-02-17 23:06:00,46.8,5.4,29.85,SW,231,0.0,1.0,18,0.00,,,0.00,0,Wunderground v.1.15,2013-02-18 06:06:00,
2013-02-17 23:11:00,45.5,5.6,29.86,SW,231,0.0,0.0,19,0.00,,,0.00,0,Wunderground v.1.15,2013-02-18 06:11:00,
2013-02-17 23:16:00,44.3,5.7,29.87,SW,231,0.0,0.0,20,0.00,,,0.00,0,Wunderground v.1.15,2013-02-18 06:16:00,
2013-02-17 23:26:00,42.8,4.4,29.87,SW,231,0.0,0.0,20,0.00,,,0.00,0,Wunderground v.1.15,2013-02-18 06:26:00,
2013-02-17 23:36:00,41.1,5.1,29.88,SW,231,0.0,0.0,22,0.00,,,0.00,0,Wunderground v.1.15,2013-02-18 06:36:00,
2013-02-17 23:46:00,38.1,4.4,29.90,SW,231,0.0,0.0,24,0.00,,,0.00,0,Wunderground v.1.15,2013-02-18 06:46:00,
2013-02-17 23:51:00,37.6,4.9,29.90,SW,231,0.0,0.0,25,0.00,,,0.00,0,Wunderground v.1.15,2013-02-18 06:51:00,
2013-02-17 23:56:00,37.6,5.7,29.91,SW,231,0.0,0.0,26,0.00,,,0.00,0,Wunderground v.1.15,2013-02-18 06:56:00,